This is the latest recevied weather packets stored in our database for station/object WB3IGR. If no packets are shown the sender has not sent any weather packets the latest 10 day(s).
| Time | Temp. | Humidity | Pressure | Rain* | Wind** | Luminosity | Snow |
|---|---|---|---|---|---|---|---|
| 1777812167 | 7.78° C | 64% | 1016.9 hPa | 0 mm | - | 321 W/m² | - |
| 1777811864 | 7.22° C | 64% | 1016.8 hPa | 0 mm | - | 303 W/m² | - |
| 1777811563 | 7.22° C | 64% | 1016.7 hPa | 0 mm | - | 291 W/m² | - |
| 1777811252 | 7.22° C | 65% | 1016.9 hPa | 0 mm | - | 271 W/m² | - |
| 1777810950 | 6.67° C | 65% | 1016.6 hPa | 0 mm | - | 247 W/m² | - |
| 1777810646 | 7.22° C | 66% | 1016.7 hPa | 0 mm | - | 231 W/m² | - |
| 1777810343 | 6.67° C | 65% | 1016.7 hPa | 0 mm | - | 215 W/m² | - |
| 1777810039 | 6.67° C | 65% | 1016.6 hPa | 0 mm | - | 207 W/m² | - |
| 1777809737 | 6.67° C | 67% | 1016.6 hPa | 0 mm | - | 189 W/m² | - |
| 1777809434 | 6.11° C | 67% | 1016.6 hPa | 0 mm | - | 137 W/m² | - |
| 1777809132 | 6.11° C | 67% | 1016.5 hPa | 0 mm | - | 102 W/m² | - |
| 1777808830 | 6.67° C | 68% | 1016.5 hPa | 0 mm | - | 151 W/m² | - |
| 1777808526 | 6.67° C | 69% | 1016.7 hPa | 0 mm | - | 160 W/m² | - |
| 1777808223 | 6.67° C | 70% | 1016.5 hPa | 0 mm | - | 151 W/m² | - |
| 1777807923 | 6.11° C | 72% | 1016.6 hPa | 0 mm | - | 141 W/m² | - |
| 1777807620 | 5.56° C | 73% | 1016.4 hPa | 0 mm | - | 116 W/m² | - |
| 1777807316 | 5.56° C | 73% | 1016.3 hPa | 0 mm | - | 57 W/m² | - |
| 1777807012 | 5.56° C | 72% | 1016.3 hPa | 0 mm | - | 56 W/m² | - |
| 1777806709 | 5° C | 73% | 1016 hPa | 0 mm | - | 45 W/m² | - |
| 1777806405 | 5° C | 73% | 1016.2 hPa | 0 mm | - | 42 W/m² | - |
| 1777806102 | 5.56° C | 72% | 1016.1 hPa | 0 mm | - | 37 W/m² | - |
| 1777805798 | 5.56° C | 72% | 1015.8 hPa | 0 mm | - | 39 W/m² | - |
| 1777805496 | 5.56° C | 73% | 1015.8 hPa | 0 mm | - | 39 W/m² | - |
| 1777805194 | 5° C | 73% | 1015.8 hPa | 0 mm | - | 37 W/m² | - |
| 1777804891 | 5.56° C | 72% | 1015.8 hPa | 0 mm | - | 31 W/m² | - |
* Rain latest hour (hover to see other rain measurements)
** Current wind speed in m/s (hover to see current wind gust speed)